This is the latest recevied weather packets stored in our database for station/object F5OWB. If no packets are shown the sender has not sent any weather packets the latest 10 day(s).
| Time | Temp. | Humidity | Pressure | Rain* | Wind** | Luminosity | Snow |
|---|---|---|---|---|---|---|---|
| 1778232848 | 16.11° C | 65% | 1019.8 hPa | 0 mm | - | 689 W/m² | - |
| 1778232788 | 16.11° C | 64% | 1019.8 hPa | 0 mm | - | 691 W/m² | - |
| 1778232728 | 16.11° C | 63% | 1019.7 hPa | 0 mm | - | 691 W/m² | - |
| 1778232668 | 16.11° C | 66% | 1019.7 hPa | 0 mm | - | 689 W/m² | - |
| 1778232608 | 16.11° C | 66% | 1019.7 hPa | 0 mm | - | 687 W/m² | - |
| 1778232548 | 16.11° C | 67% | 1019.7 hPa | 0 mm | - | 689 W/m² | - |
| 1778232489 | 16.11° C | 65% | 1019.7 hPa | 0 mm | - | 687 W/m² | - |
| 1778232429 | 16.11° C | 64% | 1019.7 hPa | 0 mm | - | 686 W/m² | - |
| 1778232369 | 16.11° C | 64% | 1019.8 hPa | 0 mm | - | 682 W/m² | - |
| 1778232304 | 16.11° C | 64% | 1019.7 hPa | 0 mm | - | 680 W/m² | - |
| 1778232244 | 16.11° C | 64% | 1019.7 hPa | 0 mm | - | 679 W/m² | - |
| 1778232187 | 16.11° C | 63% | 1019.7 hPa | 0 mm | - | 675 W/m² | - |
| 1778232125 | 16.11° C | 63% | 1019.7 hPa | 0 mm | - | 675 W/m² | - |
| 1778232064 | 16.11° C | 63% | 1019.7 hPa | 0 mm | - | 675 W/m² | - |
| 1778232007 | 16.11° C | 64% | 1019.7 hPa | 0 mm | - | 671 W/m² | - |
| 1778231945 | 16.11° C | 65% | 1019.8 hPa | 0 mm | - | 670 W/m² | - |
| 1778231885 | 16.11° C | 64% | 1019.8 hPa | 0 mm | - | 668 W/m² | - |
| 1778231825 | 16.11° C | 63% | 1019.8 hPa | 0 mm | - | 668 W/m² | - |
| 1778231767 | 16.11° C | 64% | 1019.7 hPa | 0 mm | - | 666 W/m² | - |
| 1778231707 | 16.11° C | 64% | 1019.8 hPa | 0 mm | - | 666 W/m² | - |
| 1778231644 | 16.11° C | 66% | 1019.7 hPa | 0 mm | - | 664 W/m² | - |
| 1778231585 | 16.11° C | 67% | 1019.8 hPa | 0 mm | - | 661 W/m² | - |
| 1778231525 | 16.11° C | 67% | 1019.8 hPa | 0 mm | - | 657 W/m² | - |
| 1778231464 | 16.11° C | 68% | 1019.8 hPa | 0 mm | - | 563 W/m² | - |
| 1778231404 | 16.11° C | 67% | 1019.8 hPa | 0 mm | - | 640 W/m² | - |
* Rain latest hour (hover to see other rain measurements)
** Current wind speed in m/s (hover to see current wind gust speed)